Weather History for Beaufort MCAS, SC

Change the Weather History Date:

Tuesday, November 8, 2011

  Actual Average Record
Temperature  
Mean Temperature 63 °F -  
Max Temperature 73 °F 69 °F 85 °F (1938)
Min Temperature 53 °F 48 °F 30 °F (1967)
Degree Days  
Heating Degree Days 2    
Growing Degree Days 13 (Base 50)    
Moisture  
Dew Point 53 °F    
Average Humidity 78    
Maximum Humidity 96    
Minimum Humidity 50    
Precipitation  
Precipitation 0.01 in - - ()
Sea Level Pressure  
Sea Level Pressure 30.19 in    
Wind  
Wind Speed 6 mph (NNE)    
Max Wind Speed 10 mph    
Max Gust Speed -    
Visibility 10 miles    
Events      
Averages and records for this station are not official NWS values.
T = Trace of Precipitation, MM = Missing Value Source: NWS Daily Summary

Daily Weather History Graph

Daily Weather History Graph

Search for Another Location

Airport:

Trip Planner

Search our weather history database for the weather conditions in past years. The results will help you decide how hot, cold, wet, or windy it might be!

Date:

Astronomy

Nov. 08, 2011 Rise Set
Actual Time 6:45 AM EST 5:26 PM EST
Civil Twilight 6:20 AM EST 5:52 PM EST
Nautical Twilight 5:50 AM EST 6:21 PM EST
Astronomical Twilight 5:22 AM EST 6:50 PM EST
Moon 4:03 PM EST (11/8) 4:47 AM EST (11/8)
Length of Visible Light 11h 32m
Length of Day
10h 40m
Waxing Gibbous, 96% of the Moon is Illuminated
Nov 8
Waxing Gibbous
Nov 10
Full
Nov 18
Last Quarter
Nov 25
New
Dec 2
First Quarter

Hourly Weather History & Observations

Time (EST) Temp. Dew Point Humidity Pressure Visibility Wind Dir Wind Speed Gust Speed Precip Events Conditions
12:56 AM 55.9 °F 52.0 °F 87% 30.22 in 10.0 mi North 5.8 mph - N/A   Clear
1:56 AM 53.1 °F 50.0 °F 89% 30.21 in 10.0 mi North 4.6 mph - N/A   Clear
2:56 AM 54.0 °F 51.1 °F 90% 30.21 in 10.0 mi NNW 5.8 mph - N/A   Clear
3:56 AM 53.1 °F 51.1 °F 93% 30.20 in 10.0 mi NNW 6.9 mph - 0.01 in   Clear
4:56 AM 53.1 °F 50.0 °F 89% 30.21 in 10.0 mi NNW 6.9 mph - N/A   Clear
5:56 AM 53.1 °F 51.1 °F 93% 30.22 in 10.0 mi NNW 6.9 mph - N/A   Clear
6:56 AM 53.1 °F 51.1 °F 93% 30.22 in 10.0 mi NNW 6.9 mph - N/A   Partly Cloudy
7:56 AM 57.0 °F 53.1 °F 87% 30.24 in 10.0 mi North 9.2 mph - N/A   Partly Cloudy
8:56 AM 61.0 °F 53.1 °F 75% 30.24 in 10.0 mi North 5.8 mph - N/A   Partly Cloudy
9:56 AM 66.0 °F 54.0 °F 65% 30.23 in 10.0 mi NNE 6.9 mph - N/A   Partly Cloudy
10:56 AM 71.1 °F 55.0 °F 57% 30.22 in 10.0 mi NE 6.9 mph - N/A   Scattered Clouds
11:56 AM 72.0 °F 54.0 °F 53% 30.20 in 10.0 mi NE 9.2 mph - N/A   Partly Cloudy
12:56 PM 73.9 °F 54.0 °F 50% 30.19 in 10.0 mi ENE 5.8 mph - N/A   Clear
1:56 PM 73.9 °F 57.0 °F 55% 30.16 in 10.0 mi East 5.8 mph - N/A   Scattered Clouds
2:56 PM 73.0 °F 57.0 °F 57% 30.15 in 10.0 mi East 8.1 mph - N/A   Clear
3:56 PM 68.0 °F 54.0 °F 61% 30.15 in 10.0 mi East 10.4 mph - N/A   Scattered Clouds
4:56 PM 64.9 °F 55.0 °F 70% 30.15 in 10.0 mi East 4.6 mph - N/A   Clear
5:56 PM 63.0 °F 54.0 °F 72% 30.16 in 10.0 mi East 6.9 mph - N/A   Clear
6:56 PM 62.1 °F 55.9 °F 80% 30.18 in 10.0 mi ENE 4.6 mph - N/A   Clear
7:56 PM 60.1 °F 55.0 °F 83% 30.17 in 10.0 mi Calm Calm - N/A   Clear
8:56 PM 55.0 °F 54.0 °F 96% 30.17 in 10.0 mi Calm Calm - N/A   Clear
9:56 PM 55.9 °F 54.0 °F 93% 30.17 in 10.0 mi North 4.6 mph - N/A   Clear
10:56 PM 55.9 °F 54.0 °F 93% 30.15 in 10.0 mi Calm Calm - N/A   Clear
11:56 PM 54.0 °F 52.0 °F 93% 30.14 in 10.0 mi Calm Calm - N/A   Clear